TimePST,TemperatureF,Dew PointF,Humidity,Sea Level PressureIn,VisibilityMPH,Wind Direction,Wind SpeedMPH,Gust SpeedMPH,PrecipitationIn,Events,Conditions,WindDirDegrees,DateUTC
12:05 AM,53.6,51.8,94,30.20,3.0,Calm,Calm,-,N/A,,Overcast,0,2013-01-25 08:05:00
12:15 AM,53.6,51.8,94,30.20,2.5,Calm,Calm,-,N/A,,Overcast,0,2013-01-25 08:15:00
12:23 AM,53.6,51.8,94,30.20,3.0,Calm,Calm,-,N/A,,Overcast,0,2013-01-25 08:23:00
12:49 AM,53.6,51.8,94,30.20,2.5,Calm,Calm,-,0.01,Rain,Light Rain,0,2013-01-25 08:49:00
12:56 AM,54.0,52.0,93,30.21,2.5,Calm,Calm,-,0.01,Rain,Light Rain,0,2013-01-25 08:56:00
1:16 AM,53.6,53.6,100,30.20,3.0,Calm,Calm,-,0.00,Rain,Light Rain,0,2013-01-25 09:16:00
1:30 AM,53.6,53.6,100,30.20,2.0,Calm,Calm,-,0.01,Rain,Light Rain,0,2013-01-25 09:30:00
1:56 AM,54.0,53.1,97,30.21,2.0,Calm,Calm,-,0.01,Rain,Light Rain,0,2013-01-25 09:56:00
2:25 AM,53.6,51.8,94,30.20,1.2,Calm,Calm,-,0.00,,Overcast,0,2013-01-25 10:25:00
2:42 AM,53.6,51.8,94,30.20,1.2,Calm,Calm,-,0.00,,Overcast,0,2013-01-25 10:42:00
2:51 AM,53.6,51.8,94,30.20,1.2,Calm,Calm,-,0.00,,Overcast,0,2013-01-25 10:51:00
2:56 AM,53.1,52.0,96,30.20,1.2,Calm,Calm,-,0.00,,Overcast,0,2013-01-25 10:56:00
3:06 AM,53.6,51.8,94,30.19,1.8,NE,3.5,-,N/A,,Overcast,40,2013-01-25 11:06:00
3:13 AM,53.6,51.8,94,30.19,2.0,Calm,Calm,-,N/A,,Overcast,0,2013-01-25 11:13:00
3:24 AM,53.6,53.6,100,30.19,2.0,Calm,Calm,-,N/A,,Overcast,0,2013-01-25 11:24:00
3:56 AM,53.1,53.1,100,30.19,2.0,Calm,Calm,-,0.01,Rain,Light Rain,0,2013-01-25 11:56:00
4:10 AM,53.6,53.6,100,30.18,2.0,Calm,Calm,-,0.00,,Overcast,0,2013-01-25 12:10:00
4:56 AM,53.1,52.0,96,30.18,2.0,ESE,3.5,-,0.00,,Overcast,110,2013-01-25 12:56:00
5:03 AM,53.6,51.8,94,30.17,2.5,Calm,Calm,-,N/A,,Overcast,0,2013-01-25 13:03:00
5:32 AM,53.6,53.6,100,30.17,3.0,Calm,Calm,-,N/A,,Overcast,0,2013-01-25 13:32:00
5:45 AM,53.6,53.6,100,30.17,4.0,Calm,Calm,-,N/A,,Overcast,0,2013-01-25 13:45:00
5:56 AM,54.0,52.0,93,30.18,3.0,Calm,Calm,-,N/A,,Overcast,0,2013-01-25 13:56:00
6:23 AM,53.6,53.6,100,30.18,4.0,Calm,Calm,-,N/A,,Overcast,0,2013-01-25 14:23:00
6:46 AM,53.6,51.8,94,30.18,2.5,North,3.5,-,N/A,,Overcast,360,2013-01-25 14:46:00
6:56 AM,53.1,51.1,93,30.19,2.5,Calm,Calm,-,N/A,,Overcast,0,2013-01-25 14:56:00
7:15 AM,53.6,53.6,100,30.18,3.0,Calm,Calm,-,N/A,,Overcast,0,2013-01-25 15:15:00
7:43 AM,53.6,51.8,94,30.18,1.8,North,3.5,-,N/A,,Overcast,350,2013-01-25 15:43:00
7:56 AM,53.1,52.0,96,30.19,2.0,Calm,Calm,-,N/A,,Overcast,0,2013-01-25 15:56:00
8:21 AM,53.6,51.8,94,30.18,3.0,Calm,Calm,-,N/A,,Overcast,0,2013-01-25 16:21:00
8:34 AM,53.6,51.8,94,30.18,3.0,WSW,3.5,-,N/A,,Overcast,240,2013-01-25 16:34:00
8:42 AM,53.6,53.6,100,30.18,4.0,Calm,Calm,-,0.00,Rain,Light Rain,0,2013-01-25 16:42:00
8:56 AM,54.0,53.1,97,30.19,4.0,Calm,Calm,-,0.00,,Overcast,0,2013-01-25 16:56:00
9:17 AM,55.4,53.6,94,30.18,4.0,Calm,Calm,-,N/A,,Overcast,0,2013-01-25 17:17:00
9:26 AM,55.4,53.6,94,30.18,4.0,Calm,Calm,-,N/A,,Overcast,0,2013-01-25 17:26:00
9:56 AM,57.0,54.0,89,30.19,4.0,Calm,Calm,-,N/A,,Overcast,0,2013-01-25 17:56:00
10:56 AM,57.9,54.0,87,30.19,8.0,Calm,Calm,-,N/A,,Overcast,0,2013-01-25 18:56:00
11:07 AM,57.2,53.6,88,30.18,3.0,North,3.5,-,N/A,,Overcast,10,2013-01-25 19:07:00
11:29 AM,60.8,55.4,82,30.16,6.0,ENE,3.5,-,N/A,,Haze,60,2013-01-25 19:29:00
11:41 AM,60.8,55.4,82,30.15,6.0,NE,3.5,-,N/A,,Haze,50,2013-01-25 19:41:00
11:56 AM,60.1,55.0,83,30.14,6.0,Calm,Calm,-,N/A,,Haze,0,2013-01-25 19:56:00
12:56 PM,62.1,55.9,80,30.12,7.0,North,5.8,-,N/A,,Partly Cloudy,10,2013-01-25 20:56:00
1:56 PM,62.1,55.0,78,30.10,7.0,North,4.6,-,N/A,,Clear,10,2013-01-25 21:56:00
2:56 PM,62.1,54.0,75,30.09,9.0,North,5.8,-,N/A,,Clear,350,2013-01-25 22:56:00
3:56 PM,62.1,53.1,72,30.08,10.0,NW,8.1,-,N/A,,Partly Cloudy,320,2013-01-25 23:56:00
4:56 PM,60.1,53.1,78,30.07,10.0,North,3.5,-,N/A,,Clear,360,2013-01-26 00:56:00
5:56 PM,61.0,52.0,72,30.06,10.0,West,3.5,-,N/A,,Partly Cloudy,270,2013-01-26 01:56:00
6:29 PM,60.8,53.6,77,30.06,10.0,Calm,Calm,-,N/A,,Mostly Cloudy,0,2013-01-26 02:29:00
6:56 PM,60.1,53.1,78,30.07,10.0,Calm,Calm,-,N/A,,Mostly Cloudy,0,2013-01-26 02:56:00
7:13 PM,59.0,51.8,77,30.06,10.0,Calm,Calm,-,N/A,,Partly Cloudy,0,2013-01-26 03:13:00
7:56 PM,57.0,52.0,83,30.07,10.0,Calm,Calm,-,N/A,,Mostly Cloudy,0,2013-01-26 03:56:00
8:07 PM,55.4,51.8,88,30.06,10.0,Calm,Calm,-,N/A,,Scattered Clouds,0,2013-01-26 04:07:00
8:38 PM,57.2,53.6,88,30.07,10.0,NW,3.5,-,N/A,,Mostly Cloudy,310,2013-01-26 04:38:00
8:56 PM,57.9,53.1,84,30.08,10.0,NW,3.5,-,N/A,,Overcast,310,2013-01-26 04:56:00
9:47 PM,55.4,53.6,94,30.07,10.0,Calm,Calm,-,N/A,,Overcast,0,2013-01-26 05:47:00
9:56 PM,55.0,52.0,89,30.09,10.0,Calm,Calm,-,N/A,,Overcast,0,2013-01-26 05:56:00
10:56 PM,55.0,52.0,89,30.09,10.0,Calm,Calm,-,N/A,,Overcast,0,2013-01-26 06:56:00
11:56 PM,53.1,50.0,89,30.08,10.0,Calm,Calm,-,N/A,,Clear,0,2013-01-26 07:56:00